Airfield :
LOGIN :

Register | Disclaimer

   EN    FR    IT 

 










Legend :    VFR   Marginal VFR   IFR   Intensive IFR   Very Intensive IFR
Visi :
Ceiling :
>= 8 km
>= 3000ft
5 to 8 km
1000 to 3000 ft
1500m to 5 km
500 to 1000 ft
800 to 1500m
200 to 500 ft
< 800m
< 200 ft
Symbols :   Thunderstorms  Fog  Heavy snow  Heavy precipitations  Wind > 20 kt
SIGMETs :     Misc.  Thunderstorms  Icing  Turbulence  Mountain Waves  Volcanic Ashes






- Airport Elevation : 11 ft
- IATA code : SXL


EISG - Sligo

CURRENT METAR :
  • 171200Z 03007KT 9999 FEW048 SCT050 08/05 Q1018

EXPIRED METARs :
  • 171130Z 03008KT 9999 BKN030 BKN045 OVC050 08/05 Q1018
  • 171100Z 35010KT 9999 OVC048 08/04 Q1018
  • 171000Z 02014KT 9000 FEW014 SCT029 OVC035 07/05 Q1017
  • 170930Z 36016KT 8000 FEW014 BKN030 OVC050 07/05 Q1017

TAF TAF EISG
Valid from the 17 at 12:00 until the 17 at 21:00 UTC


171100Z 1712/1721 35010KT 9999 OVC045



MET'MAP, your aeronautical weather chart ! - Copyright ORBIFLY December 2007 - Disclaimer

ORBIFLY MET'MAP TEAM :

Programming & Development : Alexandra Zaïnal
Concept & Development : Baudouin d'Aumeries
Co-Development & Prog : Marc-Olivier Méhu
Technical & hardware support : Manuel Goepfert

Contact : metmap@orbifly.com




SOURCES & CREDITS :

   NOAA